Weather History for Douglas Bisbee, AZ

Change the Weather History Date:

Friday, January 18, 2013

  Actual Average Record
Temperature  
Mean Temperature 43 °F 46 °F  
Max Temperature 65 °F 63 °F 80 °F (1971)
Min Temperature 21 °F 30 °F 9 °F (1949)
Degree Days  
Heating Degree Days 22 19  
Month to date heating degree days 518 344  
Since 1 July heating degree days 1402 1368  
Cooling Degree Days 0 0  
Month to date cooling degree days 0 0  
Year to date cooling degree days 0 0  
Moisture  
Dew Point 12 °F    
Average Humidity 38    
Maximum Humidity 62    
Minimum Humidity 13    
Precipitation  
Precipitation 0.00 in 0.02 in 1.30 in (1993)
Month to date precipitation T 0.42  
Year to date precipitation T 0.42  
Snow  
Snow 0.00 in - - ()
Month to date snowfall 0.0  
Snow Depth 0.00 in    
Sea Level Pressure  
Sea Level Pressure 30.22 in    
Wind  
Wind Speed 2 mph (ENE)    
Max Wind Speed 13 mph    
Max Gust Speed 14 mph    
Visibility 10 miles    
Events      
T = Trace of Precipitation, MM = Missing Value Source: NWS Daily Summary

Daily Weather History Graph

Daily Weather History Graph

Search for Another Location

Airport:

Trip Planner

Search our weather history database for the weather conditions in past years. The results will help you decide how hot, cold, wet, or windy it might be!

Date:

Astronomy

Jan. 18, 2013 Rise Set
Actual Time 7:17 AM MST 5:40 PM MST
Civil Twilight 6:51 AM MST 6:07 PM MST
Nautical Twilight 6:21 AM MST 6:36 PM MST
Astronomical Twilight 5:52 AM MST 7:05 PM MST
Moon 11:29 AM MST (1/18) 12:04 AM MST (1/18)
Length of Visible Light 11h 15m
Length of Day
10h 23m
Waxing Crescent, 48% of the Moon is Illuminated
Jan 18
Waxing Crescent
Jan 18
First Quarter
Jan 26
Full
Feb 3
Last Quarter
Feb 10
New

Hourly Weather History & Observations

Time (MST) Temp. Windchill Dew Point Humidity Pressure Visibility Wind Dir Wind Speed Gust Speed Precip Events Conditions
12:56 AM 36.0 °F 28.0 °F 12.0 °F 37% 30.22 in 10.0 mi North 11.5 mph - N/A   Clear
1:56 AM 27.0 °F 17.3 °F 10.0 °F 49% 30.23 in 10.0 mi North 10.4 mph - N/A   Clear
2:56 AM 21.9 °F - 8.1 °F 55% 30.24 in 10.0 mi Calm Calm - N/A   Clear
3:56 AM 23.0 °F 18.4 °F 9.0 °F 55% 30.23 in 10.0 mi East 3.5 mph - N/A   Clear
4:56 AM 25.0 °F - 10.0 °F 53% 30.23 in 10.0 mi Calm Calm - N/A   Clear
5:56 AM 24.1 °F - 10.0 °F 55% 30.25 in 10.0 mi Calm Calm - N/A   Clear
6:56 AM 21.9 °F 15.7 °F 10.0 °F 60% 30.28 in 10.0 mi ESE 4.6 mph - N/A   Clear
7:56 AM 25.0 °F - 10.9 °F 55% 30.30 in 10.0 mi Calm Calm - N/A   Clear
8:56 AM 32.0 °F - 12.9 °F 45% 30.30 in 10.0 mi Calm Calm - N/A   Clear
9:56 AM 39.9 °F - 15.1 °F 36% 30.32 in 10.0 mi Calm Calm - N/A   Clear
10:56 AM 48.0 °F - 16.0 °F 28% 30.28 in 10.0 mi Calm Calm - N/A   Clear
11:56 AM 51.1 °F - 17.1 °F 26% 30.23 in 10.0 mi Calm Calm - N/A   Clear
12:56 PM 55.9 °F - 17.1 °F 22% 30.18 in 10.0 mi Calm Calm - N/A   Clear
1:56 PM 60.1 °F - 16.0 °F 18% 30.16 in 10.0 mi Calm Calm - N/A   Clear
2:56 PM 63.0 °F - 15.1 °F 16% 30.15 in 10.0 mi Calm Calm - N/A   Clear
3:56 PM 64.0 °F - 12.9 °F 14% 30.13 in 10.0 mi Calm Calm - N/A   Clear
4:56 PM 62.1 °F - 12.9 °F 15% 30.13 in 10.0 mi SW 3.5 mph - N/A   Clear
5:56 PM 55.9 °F - 14.0 °F 19% 30.16 in 10.0 mi WSW 3.5 mph - N/A   Clear
6:56 PM 44.1 °F 40.8 °F 10.9 °F 26% 30.21 in 10.0 mi NE 5.8 mph - N/A   Clear
7:56 PM 41.0 °F 37.1 °F 10.9 °F 29% 30.22 in 10.0 mi NNE 5.8 mph - N/A   Clear
8:56 PM 39.9 °F - 12.0 °F 32% 30.21 in 10.0 mi Calm Calm - N/A   Clear
9:56 PM 34.0 °F - 9.0 °F 35% 30.21 in 10.0 mi Calm Calm - N/A   Clear
10:56 PM 32.0 °F 26.4 °F 10.9 °F 42% 30.19 in 10.0 mi ESE 5.8 mph - N/A   Clear
11:56 PM 33.1 °F - 12.0 °F 42% 30.17 in 10.0 mi Calm Calm - N/A   Clear